Regional Weather Roundup
Issued by NWS Goodland, KS

Home | Current Version | Previous Version | Text Only | Print | Product List | Glossary On
Versions: 1 2 3 4 5 6 7 8 9 10 11 12 13 14 15 16 17 18 19 20 21 22 23 24 25 26 27 28 29 30 31 32 33 34 35 36 37 38 39 40 41 42 43 44 45 46 47 48 49 50
000
ASUS43 KGLD 020208
RWRGLD

GOODLAND FORECAST AREA HOURLY WEATHER ROUNDUP
NATIONAL WEATHER SERVICE GOODLAND KS
800 PM MDT SAT AUG 01 2015

...OFFICIAL OBSERVATIONS...

CITY           SKY/WX    TMP DP  RH WIND       PRES   REMARKS
GOODLAND KS    MOCLDY    77  56  48 S9        30.03R
HILL CITY KS   CLEAR     82  60  47 S8        29.96R
IMPERIAL NEB   MOCLDY    81  54  39 N17       30.05R
MCCOOK NEB     PTCLDY    82  56  40 S9        29.96R
AKRON CO       TSTM      68  59  73 SE38G58   30.07R
BURLINGTON CO  MOCLDY    79  56  45 SE14      30.06R
LIMON CO       CLOUDY    78  55  44 SE12      30.10S
$$

...UNOFFICIAL OBSERVATIONS...

CITY           SKY/WX    TMP DP  RH WIND       PRES   REMARKS
COLBY KS       CLEAR     81  59  47 SE8       30.03R
NORTON KS      CLEAR     79  54  41 S6        29.96R
SHARON SPRINGS   N/A     79  63  58 SE9         N/A
KIT CARSON CO    N/A     82  60  47 MISG        N/A
YUMA CO          N/A     77  57  50 S10         N/A
$$


USA.gov is the U.S. government's official web portal to all federal, state and local government web resources and services.